When you browse on this site, cookies collect data to enhance your experience and personalize the content and advertising you see.
Visit our Privacy Policy to learn more. By continuing to use the site, you agree to this use of cookies and data.

Stündliche Wetter Sopó

Heute, 5 Juli, Sonntag

Zeit Temperatur Niederschläge Wind Luftdruck Luftfeuchtigkeit
00:00 +10°C° 0 mm 1 m/S 554 mmHg 92%
01:00 +10°C° 0 mm 1 m/S 554 mmHg 92%
02:00 +10°C° 0 mm 1 m/S 554 mmHg 91%
03:00 +10°C° 0 mm 1 m/S 553 mmHg 91%
04:00 +10°C° 0 mm 1 m/S 553 mmHg 91%
05:00 +10°C° 0 mm 1 m/S 554 mmHg 89%
06:00 +11°C° 0 mm 1 m/S 555 mmHg 87%
07:00 +12°C° 0 mm 1 m/S 555 mmHg 85%
08:00 +14°C° 0 mm 1 m/S 557 mmHg 77%
09:00 +16°C° 0 mm 1 m/S 558 mmHg 69%
10:00 +20°C° 0 mm 1 m/S 559 mmHg 61%
11:00 +20°C° 0.4 mm 1 m/S 559 mmHg 63%
12:00 +20°C° 0.4 mm 1 m/S 558 mmHg 65%
13:00 +20°C° 0.4 mm 1 m/S 558 mmHg 67%
14:00 +19°C° 0.7 mm 1 m/S 557 mmHg 70%
15:00 +19°C° 0.7 mm 1 m/S 556 mmHg 74%
16:00 +18°C° 0.7 mm 1 m/S 555 mmHg 77%
17:00 +16°C° 0.6 mm 1 m/S 555 mmHg 82%
18:00 +13°C° 0.6 mm 0 m/S 555 mmHg 88%
19:00 +12°C° 0.6 mm 0 m/S 554 mmHg 93%
20:00 +11°C° 0.2 mm 0 m/S 555 mmHg 93%
21:00 +12°C° 0.2 mm 1 m/S 555 mmHg 94%
22:00 +11°C° 0.2 mm 1 m/S 555 mmHg 94%
23:00 +11°C° 0 mm 1 m/S 555 mmHg 94%

Morgen, 6 Juli, Montag

Zeit Temperatur Niederschläge Wind Luftdruck Luftfeuchtigkeit
00:00 +11°C° 0 mm 1 m/S 555 mmHg 94%
01:00 +11°C° 0 mm 1 m/S 555 mmHg 94%
02:00 +11°C° 0.1 mm 1 m/S 554 mmHg 94%
03:00 +11°C° 0.1 mm 1 m/S 554 mmHg 94%
04:00 +11°C° 0.1 mm 1 m/S 554 mmHg 94%
05:00 +11°C° 0.1 mm 1 m/S 555 mmHg 93%
06:00 +12°C° 0.1 mm 1 m/S 555 mmHg 93%
07:00 +12°C° 0.1 mm 1 m/S 556 mmHg 92%
08:00 +13°C° 0.5 mm 1 m/S 557 mmHg 91%
09:00 +14°C° 0.5 mm 1 m/S 557 mmHg 90%
10:00 +14°C° 0.5 mm 1 m/S 557 mmHg 88%
11:00 +15°C° 0.2 mm 1 m/S 557 mmHg 85%
12:00 +15°C° 0.2 mm 1 m/S 557 mmHg 83%
13:00 +16°C° 0.2 mm 2 m/S 557 mmHg 80%
14:00 +16°C° 0.2 mm 2 m/S 557 mmHg 79%
15:00 +15°C° 0.2 mm 2 m/S 556 mmHg 79%
16:00 +15°C° 0.2 mm 2 m/S 556 mmHg 79%
17:00 +14°C° 0.1 mm 1 m/S 556 mmHg 83%
18:00 +13°C° 0.1 mm 1 m/S 555 mmHg 87%
19:00 +12°C° 0.1 mm 1 m/S 555 mmHg 90%
20:00 +12°C° 0 mm 1 m/S 555 mmHg 91%
21:00 +12°C° 0 mm 1 m/S 556 mmHg 91%
22:00 +12°C° 0 mm 1 m/S 556 mmHg 91%
23:00 +12°C° 0.2 mm 1 m/S 556 mmHg 92%

übermorgen, 7 Juli, Dienstag

Zeit Temperatur Niederschläge Wind Luftdruck Luftfeuchtigkeit
00:00 +12°C° 0.2 mm 1 m/S 555 mmHg 93%
01:00 +11°C° 0.2 mm 1 m/S 555 mmHg 94%
02:00 +11°C° 0 mm 1 m/S 555 mmHg 94%
03:00 +11°C° 0 mm 1 m/S 554 mmHg 94%
04:00 +11°C° 0 mm 1 m/S 554 mmHg 94%
05:00 +11°C° 0.1 mm 1 m/S 555 mmHg 94%
06:00 +11°C° 0.1 mm 1 m/S 555 mmHg 94%
07:00 +12°C° 0.1 mm 1 m/S 556 mmHg 94%
08:00 +13°C° 0.2 mm 1 m/S 556 mmHg 91%
09:00 +14°C° 0.2 mm 1 m/S 557 mmHg 89%
10:00 +14°C° 0.2 mm 1 m/S 557 mmHg 86%
11:00 +15°C° 0.6 mm 1 m/S 557 mmHg 86%
12:00 +15°C° 0.6 mm 1 m/S 557 mmHg 86%
13:00 +15°C° 0.6 mm 1 m/S 557 mmHg 85%
14:00 +15°C° 0.8 mm 1 m/S 556 mmHg 86%
15:00 +15°C° 0.8 mm 1 m/S 556 mmHg 87%
16:00 +15°C° 0.8 mm 1 m/S 555 mmHg 88%
17:00 +14°C° 0.5 mm 1 m/S 555 mmHg 90%
18:00 +13°C° 0.5 mm 1 m/S 555 mmHg 92%
19:00 +13°C° 0.5 mm 1 m/S 555 mmHg 95%
20:00 +12°C° 0.1 mm 1 m/S 555 mmHg 95%
21:00 +12°C° 0.1 mm 1 m/S 555 mmHg 95%
22:00 +11°C° 0.1 mm 1 m/S 555 mmHg 95%
23:00 +11°C° 0 mm 1 m/S 555 mmHg 94%

8 Juli, Mittwoch

Zeit Temperatur Niederschläge Wind Luftdruck Luftfeuchtigkeit
00:00 +11°C° 0 mm 1 m/S 554 mmHg 94%
01:00 +10°C° 0 mm 1 m/S 554 mmHg 94%
02:00 +10°C° 0 mm 1 m/S 554 mmHg 93%
03:00 +11°C° 0 mm 1 m/S 554 mmHg 92%
04:00 +11°C° 0 mm 1 m/S 554 mmHg 92%
05:00 +11°C° 0 mm 1 m/S 554 mmHg 91%
06:00 +12°C° 0 mm 1 m/S 555 mmHg 91%
07:00 +12°C° 0 mm 1 m/S 555 mmHg 90%
08:00 +13°C° 0.1 mm 1 m/S 556 mmHg 88%
09:00 +14°C° 0.1 mm 1 m/S 557 mmHg 86%
10:00 +15°C° 0.1 mm 1 m/S 557 mmHg 83%
11:00 +16°C° 0.4 mm 2 m/S 557 mmHg 78%
12:00 +17°C° 0.4 mm 2 m/S 558 mmHg 73%
13:00 +19°C° 0.4 mm 2 m/S 558 mmHg 68%
14:00 +18°C° 0.8 mm 2 m/S 557 mmHg 72%
15:00 +17°C° 0.8 mm 2 m/S 556 mmHg 76%
16:00 +17°C° 0.8 mm 2 m/S 555 mmHg 80%
17:00 +15°C° 0.4 mm 2 m/S 555 mmHg 84%
18:00 +14°C° 0.4 mm 1 m/S 554 mmHg 88%
19:00 +12°C° 0.4 mm 1 m/S 554 mmHg 93%
20:00 +11°C° 0 mm 1 m/S 554 mmHg 93%
21:00 +11°C° 0 mm 1 m/S 554 mmHg 93%
22:00 +10°C° 0 mm 1 m/S 554 mmHg 93%
23:00 +10°C° 0 mm 1 m/S 554 mmHg 93%

9 Juli, Donnerstag

Zeit Temperatur Niederschläge Wind Luftdruck Luftfeuchtigkeit
00:00 +10°C° 0 mm 1 m/S 554 mmHg 93%
01:00 +10°C° 0 mm 1 m/S 553 mmHg 93%
02:00 +10°C° 0 mm 1 m/S 554 mmHg 93%
03:00 +10°C° 0 mm 1 m/S 554 mmHg 93%
04:00 +11°C° 0 mm 1 m/S 554 mmHg 94%
05:00 +11°C° 0 mm 1 m/S 554 mmHg 93%
06:00 +11°C° 0 mm 1 m/S 555 mmHg 93%
07:00 +11°C° 0 mm 1 m/S 555 mmHg 92%
08:00 +13°C° 0 mm 2 m/S 556 mmHg 83%
09:00 +15°C° 0 mm 2 m/S 557 mmHg 74%
10:00 +17°C° 0 mm 3 m/S 558 mmHg 64%
11:00 +18°C° 0.1 mm 3 m/S 558 mmHg 62%
12:00 +19°C° 0.1 mm 3 m/S 558 mmHg 59%
13:00 +19°C° 0.1 mm 3 m/S 558 mmHg 57%
14:00 +19°C° 0.1 mm 3 m/S 557 mmHg 58%
15:00 +19°C° 0.1 mm 3 m/S 557 mmHg 60%
16:00 +18°C° 0.1 mm 3 m/S 556 mmHg 61%
17:00 +16°C° 0.1 mm 2 m/S 555 mmHg 71%
18:00 +14°C° 0.1 mm 2 m/S 554 mmHg 81%
19:00 +12°C° 0.1 mm 1 m/S 554 mmHg 91%
20:00 +11°C° 0 mm 1 m/S 554 mmHg 92%
21:00 +11°C° 0 mm 1 m/S 554 mmHg 92%
22:00 +10°C° 0 mm 1 m/S 555 mmHg 92%
23:00 +10°C° 0 mm 1 m/S 554 mmHg 93%

10 Juli, Freitag

Zeit Temperatur Niederschläge Wind Luftdruck Luftfeuchtigkeit
00:00 +10°C° 0 mm 1 m/S 554 mmHg 93%
01:00 +9°C° 0 mm 1 m/S 554 mmHg 93%
02:00 +10°C° 0 mm 1 m/S 554 mmHg 92%
03:00 +10°C° 0 mm 1 m/S 554 mmHg 90%
04:00 +11°C° 0 mm 1 m/S 554 mmHg 89%
05:00 +11°C° 0.1 mm 1 m/S 555 mmHg 89%
06:00 +11°C° 0.1 mm 1 m/S 555 mmHg 89%
07:00 +11°C° 0.1 mm 1 m/S 556 mmHg 90%
08:00 +12°C° 0.1 mm 1 m/S 556 mmHg 86%
09:00 +14°C° 0.1 mm 1 m/S 557 mmHg 83%
10:00 +15°C° 0.1 mm 1 m/S 558 mmHg 79%
11:00 +16°C° 0.2 mm 2 m/S 558 mmHg 75%
12:00 +17°C° 0.2 mm 2 m/S 558 mmHg 72%
13:00 +18°C° 0.2 mm 2 m/S 558 mmHg 68%
14:00 +17°C° 0.2 mm 2 m/S 557 mmHg 68%
15:00 +17°C° 0.2 mm 2 m/S 556 mmHg 69%
16:00 +17°C° 0.2 mm 2 m/S 556 mmHg 69%
17:00 +15°C° 0.1 mm 2 m/S 555 mmHg 76%
18:00 +14°C° 0.1 mm 1 m/S 555 mmHg 83%
19:00 +12°C° 0.1 mm 1 m/S 554 mmHg 91%
20:00 +11°C° 0 mm 1 m/S 554 mmHg 92%
21:00 +11°C° 0 mm 1 m/S 555 mmHg 93%
22:00 +10°C° 0 mm 1 m/S 555 mmHg 94%
23:00 +10°C° 0 mm 1 m/S 555 mmHg 94%
Mehr zeigen